EN

Hourly Weather La Martinique

Today, 28 July, Wednesday

Time Temperature Precipitation Wind Pressure Humidity
00:00 +13°C° 0 mm 6 mps 753 mmHg 95%
01:00 +13°C° 0 mm 6 mps 753 mmHg 95%
02:00 +13°C° 0 mm 6 mps 753 mmHg 95%
03:00 +13°C° 0 mm 6 mps 753 mmHg 95%
04:00 +14°C° 0 mm 6 mps 753 mmHg 93%
05:00 +14°C° 0 mm 6 mps 754 mmHg 90%
06:00 +14°C° 0 mm 6 mps 754 mmHg 89%
07:00 +16°C° 0 mm 7 mps 754 mmHg 81%
08:00 +17°C° 0 mm 7 mps 754 mmHg 74%
09:00 +18°C° 0 mm 8 mps 754 mmHg 67%
10:00 +20°C° 0.1 mm 8 mps 754 mmHg 64%
11:00 +20°C° 0.1 mm 8 mps 754 mmHg 62%
12:00 +21°C° 0.1 mm 9 mps 754 mmHg 60%
13:00 +21°C° 0 mm 9 mps 754 mmHg 59%
14:00 +21°C° 0 mm 9 mps 754 mmHg 59%
15:00 +19°C° 0 mm 9 mps 754 mmHg 58%
16:00 +20°C° 0 mm 8 mps 754 mmHg 60%
17:00 +18°C° 0 mm 8 mps 754 mmHg 62%
18:00 +18°C° 0 mm 7 mps 754 mmHg 64%
19:00 +17°C° 0 mm 7 mps 755 mmHg 68%
20:00 +16°C° 0 mm 6 mps 755 mmHg 71%
21:00 +15°C° 0 mm 6 mps 755 mmHg 75%
22:00 +14°C° 0 mm 6 mps 755 mmHg 81%
23:00 +13°C° 0 mm 5 mps 755 mmHg 86%

Tomorrow, 29 July, Thursday

Time Temperature Precipitation Wind Pressure Humidity
00:00 +12°C° 0 mm 5 mps 755 mmHg 92%
01:00 +12°C° 0 mm 5 mps 755 mmHg 93%
02:00 +12°C° 0 mm 5 mps 755 mmHg 94%
03:00 +10°C° 0 mm 5 mps 755 mmHg 95%
04:00 +12°C° 0 mm 5 mps 755 mmHg 94%
05:00 +12°C° 0 mm 5 mps 755 mmHg 93%
06:00 +13°C° 0 mm 5 mps 755 mmHg 92%
07:00 +14°C° 0 mm 5 mps 756 mmHg 82%
08:00 +16°C° 0 mm 5 mps 756 mmHg 72%
09:00 +19°C° 0 mm 6 mps 756 mmHg 62%
10:00 +20°C° 0 mm 5 mps 756 mmHg 58%
11:00 +21°C° 0 mm 5 mps 755 mmHg 53%
12:00 +22°C° 0 mm 5 mps 755 mmHg 49%
13:00 +22°C° 0 mm 5 mps 755 mmHg 48%
14:00 +22°C° 0 mm 5 mps 755 mmHg 47%
15:00 +22°C° 0 mm 4 mps 755 mmHg 46%
16:00 +22°C° 0 mm 3 mps 754 mmHg 51%
17:00 +22°C° 0 mm 3 mps 754 mmHg 55%
18:00 +21°C° 0 mm 2 mps 753 mmHg 60%
19:00 +20°C° 0 mm 2 mps 753 mmHg 65%
20:00 +18°C° 0 mm 2 mps 753 mmHg 69%
21:00 +16°C° 0 mm 2 mps 753 mmHg 74%
22:00 +16°C° 0 mm 3 mps 752 mmHg 76%
23:00 +15°C° 0 mm 5 mps 752 mmHg 77%

Day after tomorrow, 30 July, Friday

Time Temperature Precipitation Wind Pressure Humidity
00:00 +15°C° 0 mm 6 mps 752 mmHg 79%
01:00 +15°C° 0.2 mm 7 mps 751 mmHg 82%
02:00 +15°C° 0.2 mm 8 mps 751 mmHg 85%
03:00 +15°C° 0.2 mm 8 mps 751 mmHg 88%
04:00 +13°C° 0 mm 9 mps 751 mmHg 86%
05:00 +13°C° 0 mm 9 mps 751 mmHg 83%
06:00 +13°C° 0 mm 9 mps 751 mmHg 81%
07:00 +14°C° 0 mm 10 mps 751 mmHg 76%
08:00 +16°C° 0 mm 11 mps 751 mmHg 71%
09:00 +17°C° 0 mm 11 mps 751 mmHg 67%
10:00 +18°C° 0.1 mm 11 mps 752 mmHg 65%
11:00 +18°C° 0.1 mm 11 mps 752 mmHg 63%
12:00 +19°C° 0.1 mm 10 mps 752 mmHg 61%
13:00 +19°C° 0.1 mm 10 mps 752 mmHg 60%
14:00 +21°C° 0.1 mm 9 mps 753 mmHg 59%
15:00 +21°C° 0.1 mm 9 mps 753 mmHg 58%
16:00 +20°C° 0 mm 8 mps 753 mmHg 61%
17:00 +20°C° 0 mm 7 mps 753 mmHg 65%
18:00 +18°C° 0 mm 7 mps 754 mmHg 68%
19:00 +17°C° 0 mm 6 mps 754 mmHg 77%
20:00 +15°C° 0 mm 6 mps 754 mmHg 86%
21:00 +14°C° 0 mm 5 mps 754 mmHg 95%
22:00 +14°C° 0 mm 5 mps 754 mmHg 95%
23:00 +13°C° 0 mm 5 mps 754 mmHg 96%

31 July, Saturday

Time Temperature Precipitation Wind Pressure Humidity
00:00 +13°C° 0 mm 5 mps 754 mmHg 97%
01:00 +13°C° 0 mm 5 mps 754 mmHg 97%
02:00 +13°C° 0 mm 5 mps 754 mmHg 97%
03:00 +13°C° 0 mm 5 mps 754 mmHg 97%
04:00 +13°C° 0 mm 5 mps 754 mmHg 96%
05:00 +13°C° 0 mm 5 mps 754 mmHg 95%
06:00 +14°C° 0 mm 4 mps 754 mmHg 93%
07:00 +15°C° 0.1 mm 5 mps 754 mmHg 88%
08:00 +16°C° 0.1 mm 6 mps 754 mmHg 83%
09:00 +17°C° 0.1 mm 6 mps 754 mmHg 77%
10:00 +16°C° 0.1 mm 6 mps 754 mmHg 80%
11:00 +16°C° 0.1 mm 6 mps 755 mmHg 83%
12:00 +15°C° 0.1 mm 6 mps 755 mmHg 86%
13:00 +16°C° 0 mm 6 mps 754 mmHg 81%
14:00 +17°C° 0 mm 6 mps 754 mmHg 76%
15:00 +17°C° 0 mm 6 mps 754 mmHg 71%
16:00 +17°C° 0 mm 6 mps 754 mmHg 72%
17:00 +17°C° 0 mm 6 mps 754 mmHg 74%
18:00 +17°C° 0 mm 6 mps 753 mmHg 75%
19:00 +16°C° 0 mm 6 mps 753 mmHg 81%
20:00 +15°C° 0 mm 5 mps 753 mmHg 86%
21:00 +14°C° 0 mm 5 mps 753 mmHg 92%
22:00 +14°C° 0 mm 5 mps 753 mmHg 93%
23:00 +14°C° 0 mm 6 mps 753 mmHg 95%

1 August, Sunday

Time Temperature Precipitation Wind Pressure Humidity
00:00 +14°C° 0 mm 6 mps 753 mmHg 96%
01:00 +14°C° 0.1 mm 6 mps 753 mmHg 96%
02:00 +14°C° 0.1 mm 5 mps 753 mmHg 95%
03:00 +14°C° 0.1 mm 5 mps 753 mmHg 95%
04:00 +14°C° 0.1 mm 5 mps 753 mmHg 95%
05:00 +14°C° 0.1 mm 4 mps 753 mmHg 95%
06:00 +14°C° 0.1 mm 4 mps 753 mmHg 95%
07:00 +17°C° 0 mm 4 mps 753 mmHg 86%
08:00 +18°C° 0 mm 4 mps 754 mmHg 76%
09:00 +20°C° 0 mm 4 mps 754 mmHg 67%
10:00 +20°C° 0.1 mm 4 mps 754 mmHg 65%
11:00 +21°C° 0.1 mm 4 mps 754 mmHg 63%
12:00 +21°C° 0.1 mm 4 mps 754 mmHg 62%
13:00 +21°C° 0.1 mm 4 mps 754 mmHg 62%
14:00 +21°C° 0.1 mm 4 mps 754 mmHg 63%
15:00 +21°C° 0.1 mm 4 mps 755 mmHg 63%
16:00 +20°C° 0 mm 3 mps 755 mmHg 65%
17:00 +19°C° 0 mm 3 mps 755 mmHg 67%
18:00 +19°C° 0 mm 2 mps 755 mmHg 68%
19:00 +17°C° 0 mm 2 mps 755 mmHg 73%
20:00 +16°C° 0 mm 2 mps 755 mmHg 77%
21:00 +15°C° 0 mm 2 mps 756 mmHg 81%
22:00 +14°C° 0 mm 2 mps 756 mmHg 84%
23:00 +13°C° 0 mm 2 mps 756 mmHg 86%

2 August, Monday

Time Temperature Precipitation Wind Pressure Humidity
00:00 +12°C° 0 mm 2 mps 756 mmHg 89%
01:00 +12°C° 0 mm 2 mps 756 mmHg 90%
02:00 +10°C° 0 mm 2 mps 756 mmHg 90%
03:00 +10°C° 0 mm 3 mps 756 mmHg 91%
04:00 +11°C° 0 mm 3 mps 756 mmHg 89%
05:00 +11°C° 0 mm 3 mps 756 mmHg 88%
06:00 +12°C° 0 mm 3 mps 756 mmHg 86%
07:00 +14°C° 0 mm 3 mps 756 mmHg 77%
08:00 +17°C° 0 mm 3 mps 756 mmHg 68%
09:00 +19°C° 0 mm 3 mps 756 mmHg 59%
10:00 +20°C° 0 mm 3 mps 756 mmHg 55%
11:00 +21°C° 0 mm 3 mps 756 mmHg 52%
12:00 +23°C° 0 mm 2 mps 756 mmHg 48%
13:00 +22°C° 0 mm 3 mps 756 mmHg 51%
14:00 +21°C° 0 mm 4 mps 756 mmHg 53%
15:00 +21°C° 0 mm 4 mps 756 mmHg 55%
16:00 +20°C° 0 mm 4 mps 756 mmHg 60%
17:00 +19°C° 0 mm 4 mps 756 mmHg 66%
18:00 +18°C° 0 mm 3 mps 756 mmHg 71%
19:00 +16°C° 0 mm 3 mps 756 mmHg 76%
20:00 +15°C° 0 mm 2 mps 757 mmHg 82%
21:00 +14°C° 0 mm 2 mps 757 mmHg 88%
22:00 +14°C° 0 mm 2 mps 757 mmHg 88%
23:00 +13°C° 0 mm 1 mps 757 mmHg 89%
Show more